Temperature
14 14 14 14 14 14 14 14 14 14 14 14 14 14 14 14 14 14 14 14 14 14 14 14 14 14 14 14 14 14 14 14 13 13 13 13 13 12 12 12 12 12 12
14 14 14 14 14 14 14 14 14 14 14 14 14 14 14 14 14 14 14 14 14 14 14 14 14 14 14 14 14 14 14 13 13 13 13 13 13 12 12 12 12 12 12
14 14 14 14 14 14 14 14 14 14 14 14 14 14 14 14 14 14 14 14 14 14 14 14 14 14 14 14 14 14 14 13 13 13 13 13 13 12 12 12 12 12 11
13 14 14 14 14 14 14 14 14 14 14 13 13 14 13 14 14 14 14 14 14 14 14 14 14 14 14 14 14 14 14 13 13 13 13 13 13 12 12 12 12 11 11
13 13 13 13 13 13 13 13 13 13 13 13 13 13 13 13 13 14 13 13 14 14 14 14 14 14 14 14 14 14 13 13 13 13 13 13 13 13 12 12 12 11 11
12 13 13 13 13 13 13 13 13 13 13 13 13 13 13 13 13 13 13 13 13 14 14 14 14 14 14 14 14 13 13 13 13 13 13 13 13 12 12 12 12 11 11
12 12 12 12 12 12 12 13 13 13 13 13 12 12 13 13 12 13 13 13 13 13 13 13 14 14 14 14 14 14 13 13 13 13 13 13 12 12 12 12 11 11 11
11 11 12 12 12 12 12 12 12 12 12 12 12 12 12 12 12 12 12 13 13 13 13 13 13 13 14 14 14 13 13 13 13 13 13 13 12 12 12 12 11 11 11
11 11 11 11 11 11 11 12 12 12 12 12 12 11 11 11 12 12 12 12 12 12 13 13 13 13 13 13 13 13 13 13 13 13 12 12 12 12 12 12 11 11 11
10 10 10 10 11 11 11 11 11 11 11 11 11 11 11 12 11 12 12 12 12 12 12 12 13 13 13 13 13 13 13 13 13 12 12 12 12 12 11 11 11 11 11
9 9 10 10 10 10 10 10 10 10 11 11 11 11 11 11 11 11 11 11 11 12 12 12 12 12 12 13 13 13 13 13 12 12 12 12 12 12 11 11 11 11 11
8 9 9 9 9 9 9 10 10 10 10 10 10 10 10 10 10 10 10 11 11 11 11 12 12 12 12 12 12 12 12 12 12 12 12 12 11 11 11 11 11 11 11
8 8 8 8 8 8 9 9 9 9 9 9 10 10 10 10 10 10 10 10 10 10 11 11 11 12 12 12 12 12 12 12 12 12 11 11 11 11 11 11 11 11 10
7 7 7 7 8 8 8 8 8 8 8 9 9 9 9 9 9 9 9 9 9 9 10 10 11 11 11 11 11 11 11 11 11 11 11 11 11 11 11 11 10 10 10
6 6 6 6 7 7 7 7 7 7 7 8 8 8 8 8 8 8 8 8 8 8 8 9 10 10 10 11 11 10 11 11 11 11 10 10 10 10 10 10 10 10 10
5 5 5 5 6 6 6 6 6 6 6 6 7 7 7 7 8 8 8 8 8 8 8 8 9 10 10 10 10 10 10 10 10 10 10 10 10 10 10 10 9 9 9
4 4 4 5 5 5 5 5 5 5 5 6 6 6 6 6 7 7 7 7 7 7 7 8 8 8 9 9 9 9 9 9 9 9 9 9 9 9 9 9 9 9 9
3 3 3 3 4 4 4 4 4 4 5 5 5 5 5 5 5 6 6 6 6 6 6 6 7 7 8 8 8 8 8 9 9 9 9 9 9 9 8 9 8 8 8
2 2 3 3 3 3 3 3 3 3 3 4 4 4 4 4 4 5 5 5 5 5 6 5 6 6 7 7 7 7 8 8 8 8 8 8 8 8 8 8 8 8 8
2 2 2 2 2 2 2 2 2 2 3 3 3 3 3 3 3 4 4 4 4 4 5 5 5 5 6 6 6 6 7 7 7 7 7 7 7 7 7 7 7 7 7
1 1 1 1 1 1 1 1 1 1 2 2 2 2 2 2 2 3 3 3 3 3 3 4 4 4 5 5 5 5 5 6 6 6 6 6 7 7 7 7 7 7 7
1 1 0 1 1 0 0 0 -0 0 0 1 1 1 1 2 2 2 2 2 2 2 2 2 3 3 3 4 4 4 4 4 4 5 5 6 6 6 6 6 7 6 6
0 -0 -0 -0 -0 -0 -0 -1 -1 -1 -1 -0 -0 0 0 1 0 1 1 1 1 1 1 2 2 2 2 3 3 3 4 4 4 5 5 5 5 5 6 6 6 6 6
-1 -1 -1 -1 -1 -1 -1 -1 -1 -1 -1 -1 -1 -1 -1 -0 -0 -0 -0 0 1 1 1 1 1 2 2 2 2 3 3 3 4 4 4 4 4 4 5 5 5 5 5
-1 -1 -1 -2 -2 -1 -2 -2 -2 -2 -2 -2 -2 -2 -2 -2 -1 -1 -1 -1 -0 0 0 0 1 1 1 2 2 2 2 2 2 3 3 3 4 4 4 4 4 4 4
-2 -2 -2 -2 -2 -2 -3 -3 -3 -3 -3 -3 -3 -2 -2 -2 -2 -2 -2 -2 -1 -1 -1 -0 0 0 1 1 1 1 1 1 2 2 3 3 3 3 3 3 3 3 3
Wind_Speed
4 4 5 6 8 9 8 7 8 9 9 10 11 11 10 11 10 9 12 18 17 15 14 13 12 12 11 11 10 9 8 7 6 5 5 4 3 3 2 0 1 1 2
4 5 5 6 6 8 9 8 9 8 8 7 8 9 8 10 10 10 12 16 18 17 15 14 14 13 13 12 11 11 10 9 8 7 6 5 5 4 3 2 1 1 2
5 5 5 6 6 8 9 7 8 7 7 7 8 8 7 7 7 8 11 14 16 18 17 16 15 15 14 13 13 12 12 11 10 9 8 7 7 6 5 4 3 2 2
5 4 5 5 6 6 5 6 6 6 6 6 6 6 6 6 7 7 9 12 14 15 17 18 17 16 16 15 15 14 13 12 11 11 10 9 8 8 7 6 5 4 3
5 3 4 4 5 4 5 6 5 5 6 6 6 6 6 6 6 6 7 9 12 14 16 19 20 18 17 16 16 15 14 14 13 12 12 11 10 9 8 7 6 6 4
4 3 3 3 3 4 5 5 6 6 5 6 6 6 6 6 6 7 8 8 10 13 15 16 17 18 19 18 18 17 16 15 14 14 13 12 12 11 10 9 8 7 5
4 2 2 3 3 4 5 6 5 6 6 4 3 4 5 6 7 7 7 6 8 11 14 15 15 15 15 20 20 19 18 17 15 15 14 14 13 12 11 10 9 8 6
3 3 2 3 3 4 5 5 5 5 4 5 4 3 3 4 6 8 7 8 8 7 9 13 14 15 14 14 17 21 21 19 17 16 15 15 14 13 13 11 10 9 8
3 2 2 2 3 3 4 5 6 7 6 6 5 4 4 5 3 5 8 8 8 7 7 8 11 14 15 14 15 18 21 20 19 18 16 15 15 14 14 13 12 10 9
4 4 3 2 2 2 3 5 5 5 6 6 5 6 5 3 3 3 4 6 8 8 8 7 8 11 14 14 15 18 21 21 20 19 18 17 16 15 15 14 13 12 11
3 4 3 3 2 2 3 4 4 5 5 6 5 5 6 4 4 4 4 4 5 7 8 8 8 9 13 15 15 18 21 22 21 20 19 19 18 17 16 16 14 13 12
3 4 3 2 2 2 3 3 4 4 4 5 5 5 4 4 5 5 5 5 6 6 7 7 8 8 10 13 16 19 21 22 22 21 21 20 19 17 17 16 14 14 13
3 4 4 3 3 3 3 3 3 3 4 5 5 5 5 6 4 4 5 5 5 4 5 7 7 7 9 12 14 19 21 22 22 22 22 21 19 18 17 16 15 14 14
4 4 4 4 3 3 4 3 3 4 4 4 5 5 5 5 5 5 5 4 5 6 6 7 5 7 8 10 14 18 18 22 22 22 22 21 19 17 16 16 16 15 14
5 5 5 5 5 5 4 4 4 4 4 4 5 5 5 5 5 6 6 6 7 8 9 7 5 6 7 8 11 14 15 20 22 22 22 20 18 18 17 16 16 15 14
6 6 6 6 6 5 5 4 4 4 4 5 4 5 5 4 5 5 5 6 7 8 9 6 6 5 6 6 10 11 14 18 21 22 21 20 19 19 18 17 16 16 14
7 7 7 6 6 6 6 5 5 5 5 5 5 5 6 5 5 4 5 5 6 6 10 7 5 4 6 7 6 9 11 12 15 20 20 20 20 20 19 19 18 17 16
6 6 6 6 6 6 6 6 6 6 6 6 6 6 6 6 6 5 5 6 7 7 8 9 5 4 6 8 8 8 8 10 11 17 20 20 20 20 20 20 20 19 18
6 6 6 6 7 7 7 7 7 7 7 6 6 7 7 6 6 6 6 6 6 7 6 7 7 4 4 5 7 7 7 7 8 13 18 20 20 20 21 21 21 20 19
6 6 6 6 6 6 6 7 7 7 7 7 7 7 6 6 7 7 6 7 7 8 7 7 6 5 4 5 6 6 6 6 7 7 12 15 18 20 20 21 21 21 20
7 6 6 6 7 6 7 8 7 8 8 8 8 7 7 8 9 8 8 7 7 7 8 8 8 6 5 4 6 5 7 6 6 6 7 9 10 11 14 19 20 21 21
6 6 6 6 7 7 12 14 11 8 8 8 9 8 8 8 10 12 12 12 10 10 9 9 9 9 8 6 6 6 6 5 6 6 7 8 8 10 10 13 18 21 21
6 6 6 6 6 8 14 15 15 9 8 8 8 9 9 9 11 8 11 13 12 14 13 11 11 10 10 8 8 8 8 7 8 6 7 8 7 10 9 13 19 21 21
6 6 6 7 7 9 15 15 15 9 7 7 8 8 9 9 10 11 9 9 9 10 11 10 10 11 10 9 10 11 10 8 5 5 7 7 6 6 6 9 18 21 21
5 5 6 6 7 9 14 15 15 7 7 8 8 8 9 9 15 17 11 10 11 10 12 14 15 14 15 15 12 8 7 7 7 5 5 5 4 3 3 5 12 19 20
5 6 6 6 6 7 12 15 14 6 8 8 8 8 12 14 17 18 12 11 12 11 10 11 12 12 11 11 13 10 9 8 6 5 6 6 4 3 3 2 5 10 13
Wind_Direction
207 204 194 194 196 196 194 192 198 203 207 210 204 203 206 211 214 190 174 181 185 194 202 209 211 211 213 213 214 212 211 211 209 208 207 205 202 203 208 177 44 20 9
207 205 205 201 200 201 199 199 202 207 209 207 209 209 204 205 210 192 177 185 191 196 201 210 214 214 215 216 216 216 214 215 215 214 213 214 210 211 208 212 233 300 338
223 209 207 207 207 207 205 204 208 212 212 209 210 211 206 207 206 195 182 182 193 201 204 210 215 216 218 220 220 218 217 218 218 217 216 215 216 212 210 217 225 249 280
247 221 215 212 208 206 203 207 212 209 212 211 210 213 210 205 208 203 195 186 187 197 206 211 214 217 219 222 225 222 219 217 216 217 218 219 216 212 216 220 226 238 245
252 229 216 221 212 203 208 211 213 207 212 216 216 216 211 202 206 211 208 198 193 193 196 208 213 216 219 223 226 225 223 221 219 218 219 219 216 217 221 223 225 232 236
268 245 218 225 218 213 211 207 212 212 216 214 220 223 220 211 206 209 212 208 203 199 197 199 205 215 219 220 224 226 225 225 222 220 221 221 219 220 223 225 224 226 226
293 270 249 233 219 220 221 214 211 213 218 206 204 226 240 226 218 215 212 207 207 204 202 199 197 202 212 219 221 224 223 225 225 225 224 222 221 222 223 225 225 223 216
323 298 258 245 234 226 228 226 217 215 216 195 188 191 227 238 235 224 215 213 213 205 206 204 200 200 201 205 215 219 220 222 225 227 225 223 223 225 225 221 221 221 216
327 317 296 266 254 233 228 226 221 217 219 210 196 185 198 216 219 224 221 218 213 210 211 207 206 206 204 201 205 213 215 218 223 226 225 223 224 226 225 221 222 220 217
340 351 345 322 295 263 247 243 236 231 219 217 214 213 215 189 202 228 227 220 217 218 217 215 212 209 207 206 207 208 210 214 220 225 227 226 226 227 226 222 221 219 216
339 352 348 336 325 302 285 263 248 243 233 226 218 214 226 229 217 224 234 223 227 227 223 218 215 213 211 210 209 209 207 210 218 222 225 227 227 228 226 223 223 219 219
329 337 339 330 321 310 304 292 264 251 249 243 233 220 212 212 215 220 232 228 230 233 225 219 218 215 210 211 212 210 208 210 216 220 223 226 227 226 222 221 221 221 222
330 328 328 327 321 307 301 297 288 281 265 260 246 240 236 232 223 222 230 237 240 241 228 228 222 215 212 211 215 212 210 211 214 219 223 225 225 222 217 218 223 222 222
333 334 334 324 314 311 304 288 280 276 272 267 264 259 249 245 238 232 229 231 246 242 232 234 227 218 214 212 216 210 213 211 213 218 224 225 221 216 211 215 222 222 220
344 348 344 339 333 323 309 296 281 282 280 268 266 263 262 254 245 239 236 229 232 244 242 229 224 222 218 216 216 215 214 213 212 215 220 220 214 208 207 211 216 216 213
351 349 353 351 346 339 329 316 305 295 290 282 275 273 269 267 261 252 249 246 239 241 249 231 231 231 220 223 219 217 221 217 214 215 217 215 209 205 206 209 211 208 205
355 354 352 352 351 347 346 340 324 317 300 295 291 282 275 275 271 268 262 254 251 249 256 256 236 233 223 225 222 220 223 219 218 216 215 212 208 206 206 206 206 205 203
354 354 352 352 349 349 349 343 335 332 323 311 302 295 288 286 275 270 266 261 256 251 255 263 257 241 237 226 221 221 223 220 218 217 213 212 210 208 208 206 205 204 203
351 352 353 352 349 349 348 344 338 332 325 318 312 302 294 289 284 280 275 270 270 268 258 263 263 252 251 229 225 228 224 223 220 217 213 213 212 211 210 208 206 204 202
349 349 349 349 347 344 348 344 338 333 325 320 314 305 300 295 286 285 281 273 276 274 266 262 265 262 253 237 222 225 232 225 222 215 219 217 215 212 211 210 208 204 202
350 348 349 351 348 346 348 345 340 335 330 323 319 317 309 304 301 296 286 279 277 275 274 266 263 262 255 237 230 228 235 232 230 216 217 215 211 211 210 212 209 205 203
344 344 345 345 346 343 341 345 344 334 328 324 321 320 317 312 309 305 301 294 284 274 272 269 262 256 252 249 240 236 233 235 240 209 211 222 209 214 210 207 208 205 203
340 339 338 338 335 333 338 340 341 337 329 326 324 322 319 320 320 311 303 299 291 285 278 272 268 261 254 245 239 236 235 237 242 214 209 226 213 219 211 210 206 204 204
332 329 327 327 326 331 337 337 336 334 322 318 317 316 315 316 319 319 312 305 293 288 283 275 267 265 260 249 235 236 237 244 260 221 201 223 211 219 209 203 203 203 204
323 321 320 323 323 324 334 337 336 329 323 318 314 315 316 314 316 319 314 305 300 296 295 289 283 279 277 270 258 247 235 236 254 235 204 204 200 204 202 204 200 199 202
314 315 316 315 314 315 328 335 336 327 321 317 314 313 315 316 315 316 311 301 296 295 297 296 289 282 271 263 258 238 230 234 247 240 200 187 182 168 192 207 192 191 196
Height
1508 1509 1511 1512 1514 1515 1517 1518 1520 1522 1523 1525 1527 1528 1530 1532 1533 1534 1535 1536 1537 1537 1538 1539 1540 1540 1541 1541 1541 1542 1542 1542 1542 1543 1543 1543 1543 1543 1542 1542 1541 1541 1540
1504 1505 1506 1508 1509 1511 1513 1514 1516 1518 1519 1522 1523 1525 1526 1528 1530 1531 1532 1533 1533 1534 1535 1536 1537 1538 1538 1539 1540 1540 1540 1540 1541 1541 1541 1541 1541 1541 1540 1540 1540 1539 1539
1500 1501 1502 1503 1505 1507 1508 1510 1512 1514 1515 1517 1519 1521 1523 1524 1526 1527 1528 1529 1530 1531 1532 1533 1534 1535 1536 1536 1537 1538 1538 1538 1538 1539 1539 1539 1539 1539 1538 1538 1538 1537 1537
1496 1496 1497 1498 1500 1502 1504 1505 1507 1509 1510 1512 1514 1516 1518 1520 1521 1522 1524 1524 1525 1526 1528 1529 1530 1531 1532 1533 1534 1535 1535 1536 1536 1536 1536 1536 1536 1536 1536 1536 1535 1535 1534
1491 1491 1492 1494 1495 1497 1498 1500 1502 1504 1505 1507 1509 1511 1512 1514 1516 1518 1519 1520 1521 1522 1523 1525 1526 1527 1528 1529 1530 1531 1532 1532 1533 1533 1533 1533 1533 1533 1533 1533 1532 1532 1532
1486 1487 1488 1489 1490 1492 1493 1495 1497 1499 1501 1502 1504 1506 1507 1509 1510 1512 1513 1515 1516 1517 1518 1520 1521 1522 1524 1525 1526 1527 1528 1529 1529 1529 1530 1530 1530 1530 1530 1530 1529 1529 1529
1481 1482 1482 1484 1485 1486 1488 1489 1492 1493 1495 1498 1499 1500 1502 1503 1504 1506 1507 1509 1510 1511 1513 1514 1516 1517 1518 1520 1521 1522 1523 1524 1525 1525 1526 1526 1526 1526 1526 1526 1526 1526 1525
1476 1477 1478 1479 1480 1481 1482 1484 1485 1487 1489 1492 1493 1495 1496 1497 1497 1499 1501 1502 1504 1505 1506 1508 1510 1511 1512 1514 1515 1517 1518 1519 1520 1521 1521 1522 1522 1522 1522 1522 1522 1522 1522
1472 1473 1474 1475 1475 1476 1477 1478 1480 1481 1483 1485 1487 1489 1490 1489 1491 1492 1493 1495 1497 1498 1500 1502 1503 1505 1506 1508 1509 1511 1512 1514 1515 1516 1517 1517 1518 1518 1518 1518 1518 1518 1518
1468 1469 1469 1470 1471 1471 1472 1473 1474 1475 1477 1478 1480 1482 1484 1484 1486 1485 1486 1488 1490 1491 1493 1495 1496 1498 1499 1501 1503 1504 1506 1508 1509 1510 1511 1512 1512 1513 1513 1514 1514 1514 1514
1465 1465 1465 1466 1466 1467 1467 1468 1469 1470 1471 1472 1473 1474 1476 1478 1479 1480 1480 1481 1483 1484 1486 1487 1489 1491 1493 1494 1495 1497 1499 1501 1503 1504 1505 1506 1507 1507 1508 1509 1509 1509 1509
1461 1461 1461 1462 1462 1462 1463 1463 1464 1465 1465 1466 1467 1468 1469 1470 1471 1473 1474 1474 1475 1476 1478 1480 1481 1483 1485 1486 1488 1490 1492 1494 1495 1497 1498 1500 1501 1501 1502 1503 1504 1504 1504
1457 1457 1458 1458 1458 1458 1458 1459 1459 1459 1460 1461 1461 1462 1463 1464 1465 1467 1468 1468 1468 1469 1470 1471 1473 1475 1477 1478 1480 1482 1484 1486 1487 1489 1491 1493 1494 1495 1496 1497 1498 1499 1499
1454 1454 1454 1454 1454 1454 1454 1453 1454 1454 1454 1454 1455 1456 1456 1457 1459 1460 1461 1462 1461 1461 1462 1463 1464 1466 1468 1470 1472 1474 1475 1477 1479 1481 1483 1485 1486 1488 1489 1490 1492 1493 1493
1452 1451 1451 1450 1450 1449 1449 1449 1448 1448 1449 1449 1449 1450 1450 1451 1452 1453 1454 1455 1456 1454 1453 1454 1456 1458 1460 1462 1463 1465 1467 1469 1471 1473 1475 1477 1478 1480 1482 1483 1485 1486 1487
1449 1448 1448 1447 1446 1445 1445 1444 1444 1444 1444 1444 1443 1443 1444 1444 1445 1445 1446 1447 1447 1447 1445 1446 1448 1450 1452 1453 1455 1457 1458 1460 1462 1464 1466 1468 1470 1472 1474 1476 1478 1479 1480
1447 1445 1444 1443 1442 1442 1441 1440 1439 1439 1438 1438 1438 1438 1438 1438 1437 1438 1438 1439 1440 1440 1438 1437 1440 1442 1443 1444 1446 1447 1449 1451 1452 1455 1457 1459 1461 1464 1466 1468 1470 1472 1473
1445 1443 1442 1441 1439 1438 1437 1436 1435 1434 1433 1432 1432 1432 1431 1431 1431 1431 1431 1431 1432 1432 1432 1430 1431 1432 1434 1435 1437 1438 1440 1441 1443 1445 1448 1450 1452 1455 1457 1460 1462 1464 1465
1443 1441 1440 1438 1436 1435 1433 1432 1430 1429 1428 1427 1426 1426 1425 1425 1424 1424 1424 1424 1424 1424 1424 1423 1422 1424 1425 1427 1428 1429 1430 1432 1434 1436 1438 1440 1443 1445 1448 1451 1453 1456 1457
1441 1439 1438 1436 1434 1432 1430 1429 1427 1425 1423 1422 1422 1421 1419 1419 1418 1418 1417 1417 1417 1417 1416 1415 1415 1415 1416 1417 1419 1419 1420 1422 1424 1427 1429 1431 1433 1436 1439 1442 1444 1447 1449
1439 1437 1435 1433 1431 1429 1427 1425 1423 1421 1419 1417 1416 1415 1414 1413 1412 1412 1411 1410 1410 1409 1409 1408 1407 1407 1407 1408 1409 1411 1412 1413 1414 1417 1419 1421 1423 1425 1428 1431 1434 1437 1440
1437 1435 1433 1431 1429 1426 1425 1422 1420 1418 1415 1413 1411 1409 1408 1407 1406 1405 1405 1404 1403 1403 1401 1401 1399 1399 1398 1400 1401 1402 1404 1405 1405 1408 1410 1411 1414 1415 1418 1421 1424 1427 1431
1435 1433 1431 1428 1426 1424 1421 1419 1417 1414 1411 1409 1407 1405 1403 1402 1400 1398 1397 1396 1395 1395 1395 1394 1392 1390 1391 1392 1393 1394 1395 1395 1395 1398 1401 1401 1404 1405 1408 1412 1415 1418 1421
1433 1431 1428 1425 1423 1420 1418 1416 1413 1411 1408 1405 1403 1401 1399 1396 1395 1393 1391 1389 1388 1387 1386 1386 1385 1384 1384 1384 1385 1385 1386 1387 1387 1389 1392 1392 1394 1396 1399 1402 1406 1409 1412
1430 1428 1425 1423 1420 1417 1415 1413 1410 1407 1404 1401 1399 1397 1394 1392 1390 1388 1386 1383 1380 1379 1378 1377 1376 1376 1376 1376 1377 1377 1377 1378 1377 1379 1382 1384 1385 1388 1390 1392 1396 1400 1404
1428 1425 1422 1420 1417 1415 1412 1410 1407 1403 1400 1397 1394 1392 1389 1387 1385 1383 1380 1377 1373 1371 1370 1368 1367 1367 1367 1367 1367 1368 1368 1369 1369 1370 1372 1376 1377 1380 1382 1384 1388 1391 1395